Golden Valley, AZ

2:31 AM MST on February 11, 2016 (GMT -0700)
Kingman

Weather History for KIGM - October, 2014

Change the Weather History Date:

Friday, October 10, 2014

  Actual Average Record
Temperature  
Mean Temperature 67 °F 65 °F  
Max Temperature 80 °F 80 °F 95 °F (1936)
Min Temperature 53 °F 51 °F 29 °F (1924)
Degree Days  
Heating Degree Days 0 3  
Month to date heating degree days 4 17  
Since 1 July heating degree days 8 23  
Cooling Degree Days 2 3  
Month to date cooling degree days 21 41  
Year to date cooling degree days 2041 2067  
Growing Degree Days 16 (Base 50)    
Moisture  
Dew Point 49 °F    
Average Humidity 60    
Maximum Humidity 89    
Minimum Humidity 30    
Precipitation  
Precipitation 0.00 in 0.02 in 0.70 in (1985)
Month to date precipitation 0.76 0.15  
Year to date precipitation 7.25 6.44  
Sea Level Pressure  
Sea Level Pressure 29.89 in    
Wind  
Wind Speed 9 mph (South)    
Max Wind Speed 16 mph    
Max Gust Speed 22 mph    
Visibility 10 miles    
Events      
T = Trace of Precipitation, MM = Missing Value Source: NWS Daily Summary

Daily Weather History Graph

Daily Weather History Graph

Search for Another Location

Airport or City:

Trip Planner

Search our weather history database for the weather conditions in past years. The results will help you decide how hot, cold, wet, or windy it might be!

Date:

Astronomy

Oct. 10, 2014 Rise Set
Actual Time 6:37 AM MST 6:07 PM MST
Civil Twilight 6:12 AM MST 6:32 PM MST
Nautical Twilight 5:42 AM MST 7:01 PM MST
Astronomical Twilight 5:13 AM MST 7:31 PM MST
Moon 7:56 PM MST (10/10) 8:58 AM MST (10/10)
Length of Visible Light 12h 20m
Length of Day
11h 29m
Waning Gibbous, 93% of the Moon is Illuminated
Oct 10
Waning Gibbous
Oct 15
Last Quarter
Oct 23
New
Oct 30
First Quarter
Nov 6
Full

Hourly Weather History & Observations

Time (MST) Temp. Dew Point Humidity Pressure Visibility Wind Dir Wind Speed Gust Speed Precip Events Conditions
12:51 AM 57.0 °F 51.1 °F 81% 29.86 in 10.0 mi ESE 9.2 mph - N/A   Clear
1:51 AM 60.1 °F 51.1 °F 72% 29.86 in 10.0 mi SE 11.5 mph - N/A   Clear
2:51 AM 61.0 °F 50.0 °F 67% 29.85 in 10.0 mi SE 11.5 mph - N/A   Clear
3:51 AM 60.1 °F 51.1 °F 72% 29.85 in 10.0 mi SE 13.8 mph - N/A   Clear
4:51 AM 55.0 °F 48.9 °F 80% 29.87 in 10.0 mi SE 8.1 mph - N/A   Clear
5:51 AM 57.0 °F 48.9 °F 74% 29.88 in 10.0 mi SE 8.1 mph - N/A   Clear
6:51 AM 53.1 °F 50.0 °F 89% 29.91 in 10.0 mi SSE 3.5 mph - N/A   Clear
7:51 AM 61.0 °F 51.1 °F 70% 29.93 in 10.0 mi SE 5.8 mph - N/A   Clear
8:51 AM 68.0 °F 50.0 °F 52% 29.93 in 10.0 mi Calm Calm - N/A   Clear
9:51 AM 71.1 °F 52.0 °F 51% 29.93 in 10.0 mi SW 4.6 mph - N/A   Clear
10:51 AM 73.0 °F 54.0 °F 51% 29.93 in 10.0 mi WSW 8.1 mph - N/A   Clear
11:51 AM 77.0 °F 53.1 °F 43% 29.91 in 10.0 mi SSW 9.2 mph - N/A   Clear
12:51 PM 79.0 °F 52.0 °F 39% 29.89 in 10.0 mi WSW 13.8 mph - N/A   Clear
1:51 PM 79.0 °F 48.9 °F 35% 29.87 in 10.0 mi WSW 13.8 mph - N/A   Clear
2:51 PM 80.1 °F 48.9 °F 34% 29.85 in 10.0 mi SW 10.4 mph 21.9 mph N/A   Clear
3:51 PM 79.0 °F 46.9 °F 32% 29.85 in 10.0 mi SW 13.8 mph - N/A   Clear
4:51 PM 78.1 °F 45.0 °F 31% 29.86 in 10.0 mi SW 13.8 mph - N/A   Clear
5:51 PM 73.0 °F 50.0 °F 44% 29.87 in 10.0 mi SSW 8.1 mph - N/A   Clear
6:51 PM 66.9 °F 52.0 °F 59% 29.89 in 10.0 mi South 10.4 mph - N/A   Clear
7:51 PM 64.9 °F 53.1 °F 65% 29.89 in 10.0 mi South 9.2 mph - N/A   Clear
8:51 PM 63.0 °F 46.0 °F 54% 29.89 in 10.0 mi SSE 9.2 mph - N/A   Clear
9:51 PM 62.1 °F 46.0 °F 56% 29.91 in 10.0 mi SSE 10.4 mph - N/A   Clear
10:51 PM 59.0 °F 45.0 °F 60% 29.91 in 10.0 mi SSE 3.5 mph - N/A   Clear
11:51 PM 55.9 °F 46.9 °F 72% 29.91 in 10.0 mi ESE 6.9 mph - N/A   Clear